sat.trackr.live / text

‹ back to catalog

STARLINK-4548

NORAD 53431 · 2022-097AV

PAYLOAD ACTIVE UNKNOWN

§ Identity

Operator
Country
US
Launch date
2022-08-10
Launch site
AFETR
Launch vehicle
Mass (kg)
RCS (m²)

Purposes: comms

External: N2YO · Heavens-Above · Gunter

§ Orbital elements

Epoch: 2026-05-25T03:48:48.597120Z

Period
95.44 min
Inclination
53.2139°
Eccentricity
0.0001623
Mean motion
15.08845599 rev/d
Perigee alt
538.6 km
Apogee alt
540.8 km
Semi-major
6,917.9 km
B*
2.4007e-5
RAAN
120.4459°
Arg perigee
119.3038°
Mean anomaly
240.8116°
Rev number
21,033

§ Raw data

STARLINK-45481 53431U 22097AV  26145.15889580  .00000094  00000+0  24007-4 0  99972 53431  53.2139 120.4459 0001623 119.3038 240.8116 15.08845599210338

JSON: /api/v1/satellites/53431 · /tle

For live sub-satellite position, see the globe view (requires WebGL).

§ Visibility from observer

Set your observer location to see the next 7 days of passes ≥ 10°. The values pass through the URL so the page stays shareable.

No JS? Fill the form by hand. The geolocation button needs JavaScript.